Stations météo

réclame
Mon MeteoGroup
Satenas, Suède (2520): Température de l'air & dewpoint: 12.09.2019 11:00:00 - 18.09.2019 11:00:00 (CEST)Satenas, Suède (2520): water temperature: 12.09.2019 11:00:00 - 18.09.2019 11:00:00 (CEST)Satenas, Suède (2520): Vitesse du vent & gusts: 12.09.2019 11:00:00 - 18.09.2019 11:00:00 (CEST)Satenas, Suède (2520): Direction du vent: 12.09.2019 11:00:00 - 18.09.2019 11:00:00 (CEST)Satenas, Suède (2520): reduced air pressure: 12.09.2019 11:00:00 - 18.09.2019 11:00:00 (CEST)Satenas, Suède (2520): visibility: 12.09.2019 11:00:00 - 18.09.2019 11:00:00 (CEST)Satenas, Suède (2520): Quantités de précipitations: 12.09.2019 11:00:00 - 18.09.2019 11:00:00 (CEST)
Date & Time tt [°C] td [°C] tw [°C] ff [km/h] ff [knt] fx [km/h] fx [knt] dd ppp [hPa] vv [km] rr [mm]
18.09.2019 11:00:00 11,0 5,5 - 21 11 25 14 N 1015,4 10 0,0
18.09.2019 10:00:00 10,3 5,7 - 16 9 25 14 NNW 1015,0 10 0,0
18.09.2019 09:00:00 9,0 5,2 - 21 11 25 14 NNW 1014,4 10 0,0
18.09.2019 08:00:00 7,8 4,9 - 15 8 29 16 NNW 1013,8 10 0,0
18.09.2019 07:00:00 7,5 4,5 - 18 10 32 18 NNW 1013,1 10 0,0
18.09.2019 06:00:00 8,0 4,9 - 21 11 32 18 NNW 1012,8 10 0,0
18.09.2019 05:00:00 8,2 5,0 - 21 11 32 18 NW 1012,1 10 0,0
18.09.2019 04:00:00 7,8 4,6 - 21 11 29 16 WNW 1011,6 10 0,0
18.09.2019 03:00:00 8,2 4,4 - 18 10 29 16 NW 1011,2 10 0,0
18.09.2019 02:00:00 8,7 4,5 - 21 11 29 16 NW 1010,9 10 0,0
18.09.2019 01:00:00 9,5 5,3 - 16 9 25 14 NW 1010,6 10 0,0
18.09.2019 00:00:00 8,5 4,1 - 21 11 29 16 NW 1010,2 10 0,0
17.09.2019 23:00:00 8,5 5,1 - 16 9 22 12 WNW 1009,5 10 0,0
17.09.2019 22:00:00 8,4 5,0 - 16 9 22 12 WNW 1009,0 10 0,0
17.09.2019 21:00:00 8,8 4,8 - 15 8 22 12 NW 1007,9 10 0,0
17.09.2019 20:00:00 9,1 5,1 - 16 9 25 14 NW 1007,3 10 0,0
17.09.2019 19:00:00 9,7 5,7 - 21 11 36 19 NNW 1006,4 10 0,0
17.09.2019 18:00:00 9,8 6,3 - 26 14 40 21 NNW 1005,5 10 0,0
17.09.2019 17:00:00 8,0 7,0 - 31 17 - - N - 10 -
17.09.2019 16:00:00 10,3 5,9 - 29 16 43 23 NNW 1003,1 10 0,0
17.09.2019 15:00:00 10,8 4,9 - 31 17 43 23 N 1002,2 10 0,0
17.09.2019 14:00:00 11,0 4,9 - 29 16 40 21 N 1001,7 10 0,0
17.09.2019 13:00:00 11,0 4,9 - 22 12 32 18 WNW 1000,9 10 0,0
17.09.2019 12:00:00 11,0 4,9 - 22 12 32 18 NW 1000,7 10 0,0
17.09.2019 11:00:00 10,0 5,8 12,6 22 12 32 18 WNW 1000,6 10 0,0
17.09.2019 10:00:00 9,1 6,0 - 22 12 32 18 WNW 1000,5 10 0,0
17.09.2019 09:00:00 8,5 6,1 - 18 10 32 18 WNW 1000,5 10 0,0
17.09.2019 08:00:00 9,0 7,0 - 24 13 32 18 WNW 1000,6 10 0,0
17.09.2019 07:00:00 9,0 7,8 - 18 10 29 16 W 1000,6 10 0,0
17.09.2019 06:00:00 8,1 8,0 - 8 4 22 12 SW 1001,0 10 0,0
17.09.2019 05:00:00 8,6 8,0 - 13 7 32 18 WSW 1001,4 10 0,4
17.09.2019 04:00:00 8,9 7,8 - 16 9 32 18 W 1002,5 10 0,5
17.09.2019 03:00:00 9,5 8,3 - 21 11 32 18 SW 1002,9 10 0,0
17.09.2019 02:00:00 9,8 8,1 - 18 10 25 14 SW 1003,5 10 0,0
17.09.2019 01:00:00 9,8 7,6 - 21 11 32 18 SW 1004,5 10 0,0
17.09.2019 00:00:00 8,5 7,0 - 11 6 25 14 S 1005,0 10 0,0
16.09.2019 23:00:00 10,2 6,9 - 16 9 22 12 SW 1005,6 10 0,0
16.09.2019 22:00:00 11,2 7,3 - 18 10 32 18 WSW 1006,2 10 0,0
16.09.2019 21:00:00 12,1 7,2 - 24 13 32 18 WSW 1006,3 10 0,0
16.09.2019 20:00:00 12,2 6,3 - 16 9 25 14 WSW 1006,5 10 0,0
16.09.2019 19:00:00 13,4 5,3 - 22 12 29 16 W 1006,5 10 0,0
16.09.2019 18:00:00 14,1 4,9 - 24 13 32 18 W 1006,7 10 0,0
16.09.2019 17:00:00 13,5 4,1 - 26 14 32 18 WNW 1007,0 10 0,0
16.09.2019 16:00:00 13,9 4,2 - 28 15 40 21 W 1007,2 10 0,0
16.09.2019 15:00:00 14,5 4,5 - 29 16 43 23 W 1007,0 10 0,0
16.09.2019 14:00:00 14,1 3,3 - 29 16 43 23 W 1006,9 10 0,0
16.09.2019 13:00:00 13,9 3,4 - 35 19 43 23 W 1006,9 10 0,0
16.09.2019 12:00:00 13,6 4,2 - 34 18 50 27 W 1006,7 10 0,0
16.09.2019 11:00:00 13,1 4,5 - 37 20 50 27 W 1006,5 10 0,0
16.09.2019 10:00:00 12,6 5,0 - 37 20 50 27 W 1006,2 10 0,0
16.09.2019 09:00:00 11,8 4,8 - 35 19 47 25 W 1006,2 10 0,0
16.09.2019 08:00:00 11,2 4,2 - 34 18 50 27 W 1006,0 10 0,0
16.09.2019 07:00:00 11,0 3,6 - 35 19 50 27 W 1005,8 10 0,0
16.09.2019 06:00:00 11,3 4,1 - 28 15 40 21 W 1005,7 10 0,0
16.09.2019 05:00:00 11,6 4,3 - 29 16 47 25 W 1005,3 10 0,0
16.09.2019 04:00:00 12,1 5,5 - 34 18 43 23 W 1004,6 10 0,0
16.09.2019 03:00:00 12,2 7,5 - 29 16 50 27 W 1004,1 10 0,0
16.09.2019 02:00:00 12,6 8,1 - 37 20 58 31 W 1003,3 10 0,0
16.09.2019 01:00:00 12,8 8,3 - 39 21 50 27 W 1002,8 10 0,0
16.09.2019 00:00:00 12,9 8,6 - 34 18 54 29 WSW 1002,3 10 0,0
15.09.2019 23:00:00 13,1 8,6 - 37 20 50 27 WSW 1001,6 10 0,0
15.09.2019 22:00:00 13,2 8,7 - 44 24 58 31 WSW 1001,1 10 0,0
15.09.2019 21:00:00 13,2 9,1 - 41 22 54 29 WSW 1000,8 10 0,0
15.09.2019 20:00:00 13,3 9,4 - 44 24 61 33 WSW 1000,5 10 0,0
15.09.2019 19:00:00 13,5 9,2 - 42 23 58 31 WSW 1000,2 10 0,0
15.09.2019 18:00:00 13,8 8,8 - 41 22 68 37 WSW 1000,7 10 0,0
15.09.2019 17:00:00 14,1 8,3 - 48 26 76 41 WSW 1000,8 10 0,0
15.09.2019 16:00:00 14,6 8,1 - 50 27 68 37 WSW 1000,8 10 0,0
15.09.2019 15:00:00 14,5 8,0 - 48 26 76 41 WSW 1001,0 10 0,0
15.09.2019 14:00:00 14,7 7,5 - 50 27 68 37 WSW 1001,6 10 0,0
15.09.2019 13:00:00 14,6 8,5 - 44 24 61 33 W 1002,0 10 0,0
15.09.2019 12:00:00 14,3 9,5 - 46 25 68 37 W 1002,1 10 0,0
15.09.2019 11:00:00 14,1 9,9 - 44 24 61 33 WSW 1001,4 10 0,0
15.09.2019 10:00:00 13,2 11,1 - 41 22 54 29 WSW 1001,7 10 0,0
15.09.2019 09:00:00 13,2 11,6 - 37 20 54 29 WSW 1002,3 10 0,0
15.09.2019 08:00:00 13,6 13,1 - 37 20 50 27 WSW 1001,9 10 0,1
15.09.2019 07:00:00 13,6 13,6 - 37 20 50 27 WSW 1002,1 5 0,6
15.09.2019 06:00:00 13,6 13,6 - 35 19 50 27 WSW 1002,8 7 0,9
15.09.2019 05:00:00 13,3 13,3 - 37 20 54 29 SW 1004,3 6 3,0
15.09.2019 04:00:00 12,9 12,9 - 41 22 54 29 SW 1005,8 6 3,0
15.09.2019 03:00:00 12,2 12,2 - 41 22 58 31 SW 1007,5 3,4 0,7
15.09.2019 02:00:00 11,9 11,7 - 37 20 47 25 SSW 1009,1 10 0,4
15.09.2019 01:00:00 11,4 11,2 - 35 19 54 29 SSW 1011,6 7 0,3
15.09.2019 00:00:00 11,6 11,1 - 41 22 50 27 SSW 1013,0 10 0,5
14.09.2019 23:00:00 12,1 11,6 - 35 19 50 27 SSW 1014,5 10 0,3
14.09.2019 22:00:00 12,1 11,6 - 34 18 50 27 SW 1016,2 10 0,2
14.09.2019 21:00:00 13,4 10,8 - 29 16 50 27 SW 1018,0 10 0,0
14.09.2019 20:00:00 13,8 10,0 - 31 17 43 23 SW 1019,4 10 0,0
14.09.2019 19:00:00 14,2 10,2 - 34 18 47 25 WSW 1020,0 10 0,0
14.09.2019 18:00:00 14,7 9,7 - 31 17 47 25 WSW 1021,0 10 0,0
14.09.2019 17:00:00 15,0 10,4 - 37 20 54 29 WSW 1022,0 10 0,0
14.09.2019 16:00:00 15,1 10,3 - 42 23 50 27 WSW 1022,9 10 0,0
14.09.2019 15:00:00 15,7 10,5 - 35 19 54 29 W 1023,4 10 0,0
14.09.2019 14:00:00 15,8 9,2 - 39 21 50 27 W 1024,1 10 0,0
14.09.2019 13:00:00 16,0 7,5 - 29 16 43 23 W 1024,4 10 0,0
14.09.2019 12:00:00 15,4 8,4 - 35 19 43 23 W 1024,9 10 0,0
14.09.2019 11:00:00 14,5 8,2 - 28 15 36 19 W 1025,1 10 0,0
14.09.2019 10:00:00 13,7 8,7 - 24 13 36 19 W 1025,3 10 0,0
14.09.2019 09:00:00 13,1 9,4 - 24 13 36 19 W 1025,5 10 0,0
14.09.2019 08:00:00 9,6 8,0 - 13 7 25 14 SSW 1025,4 10 0,0
14.09.2019 07:00:00 10,9 8,6 - 18 10 25 14 WSW 1025,2 10 0,0
14.09.2019 06:00:00 10,8 8,0 - 18 10 25 14 WSW 1025,1 10 0,0
14.09.2019 05:00:00 11,1 8,0 - 22 12 32 18 W 1025,3 10 0,0
14.09.2019 04:00:00 11,3 8,0 - 26 14 40 21 W 1024,9 10 0,0
14.09.2019 03:00:00 11,6 7,7 - 26 14 43 23 W 1024,8 10 0,0
14.09.2019 02:00:00 11,9 7,6 - 26 14 43 23 W 1024,0 10 0,0
14.09.2019 01:00:00 12,4 7,7 - 31 17 43 23 W 1023,8 10 0,0
14.09.2019 00:00:00 12,7 7,8 - 34 18 43 23 W 1023,5 10 0,0
13.09.2019 23:00:00 12,8 7,9 - 34 18 43 23 W 1023,0 10 0,0
13.09.2019 22:00:00 13,3 8,2 - 26 14 40 21 W 1022,8 10 0,0
13.09.2019 21:00:00 13,5 8,1 - 18 10 32 18 W 1022,5 10 0,0
13.09.2019 20:00:00 13,7 8,3 - 22 12 40 21 W 1022,3 10 0,0
13.09.2019 19:00:00 14,8 8,3 - 31 17 43 23 W 1021,7 10 0,0
13.09.2019 18:00:00 15,7 8,2 - 31 17 43 23 W 1021,4 10 0,0
13.09.2019 17:00:00 16,0 8,2 - 31 17 43 23 W 1021,4 10 0,0
13.09.2019 16:00:00 16,1 8,6 - 35 19 43 23 W 1021,1 10 0,0
13.09.2019 15:00:00 16,1 8,1 - 34 18 43 23 W 1020,9 10 0,0
13.09.2019 14:00:00 16,2 7,7 - 31 17 40 21 W 1020,1 10 0,0
13.09.2019 13:00:00 16,1 7,1 - 29 16 40 21 W 1019,3 10 0,0
13.09.2019 12:00:00 15,6 7,6 - 28 15 40 21 WNW 1018,7 10 0,0
13.09.2019 11:00:00 14,9 8,6 14,7 26 14 40 21 WNW 1018,0 10 0,0
13.09.2019 10:00:00 14,2 9,8 - 24 13 32 18 WNW 1017,2 10 0,0
13.09.2019 09:00:00 13,3 10,8 - 24 13 36 19 W 1016,2 10 0,0
13.09.2019 08:00:00 12,6 10,8 - 24 13 32 18 W 1015,5 10 0,0
13.09.2019 07:00:00 12,3 11,2 - 22 12 29 16 WSW 1014,8 10 0,0
13.09.2019 06:00:00 12,3 11,5 - 22 12 32 18 WSW 1014,4 10 0,0
13.09.2019 05:00:00 12,5 12,0 - 22 12 36 19 WSW 1014,2 10 0,0
13.09.2019 04:00:00 12,9 12,0 - 26 14 36 19 WSW 1014,2 10 0,0
13.09.2019 03:00:00 13,3 12,8 - 22 12 32 18 SW 1014,5 10 0,0
13.09.2019 02:00:00 12,8 12,5 - 16 9 29 16 SSW 1014,7 10 0,0
13.09.2019 01:00:00 12,8 12,3 - 26 14 43 23 SW 1015,0 10 0,0
13.09.2019 00:00:00 12,5 12,2 - 21 11 43 23 W 1015,8 6 0,9
12.09.2019 23:00:00 13,6 12,7 - 29 16 50 27 WSW 1015,8 10 0,0
12.09.2019 22:00:00 13,9 12,5 - 35 19 50 27 WSW 1015,7 10 0,0
12.09.2019 21:00:00 14,7 12,7 - 34 18 43 23 WSW 1015,7 10 0,0
12.09.2019 20:00:00 14,8 12,7 - 29 16 43 23 SW 1016,0 10 0,0
12.09.2019 19:00:00 15,3 12,1 - 34 18 50 27 WSW 1015,8 10 0,0
12.09.2019 18:00:00 16,0 11,8 - 31 17 50 27 WSW 1016,0 10 0,0
12.09.2019 17:00:00 17,0 11,0 - 37 20 - - W - 10 -
12.09.2019 16:00:00 17,2 11,5 - 39 21 47 25 WSW 1015,9 10 0,0
12.09.2019 15:00:00 16,5 11,8 - 31 17 47 25 WSW 1016,4 10 0,0
12.09.2019 14:00:00 16,4 12,0 - 34 18 50 27 WSW 1016,1 10 0,0
12.09.2019 13:00:00 16,5 12,1 - 35 19 50 27 W 1015,8 10 0,0
12.09.2019 12:00:00 16,3 12,3 - 37 20 50 27 W 1015,6 10 0,0
12.09.2019 11:00:00 16,1 12,3 15,4 29 16 47 25 WSW 1014,9 10 0,0

tt = Température de l'air
td = dewpoint
tw = water temperature
ff = Vitesse du vent
fx = gusts
dd = Direction du vent
ppp = reduced air pressure
vv = visibility
rr = Quantités de précipitations

stations d'obs. à proximité